Location: ?????????
(55.6553°N, 38.9075°E)
Time: 13:01:46
(UTC+00:00)

BREEZE-M R/B - Pass Details

Date: 18 October 2019
Orbit: 309 x 4552 km, 49.7° (Epoch: 21 November)

Event Time Altitude Azimuth Distance (km) Brightness Sun altitude
Exits shadow 01:25:32 33° 200° (SSW) 1,384 4.5 -22.3°
Maximum altitude 01:27:25 44° 155° (SSE) 1,342 4.7 -22.1°
Drops below altitude 10° 01:36:25 10° 88° (E) 4,203 8.4 -20.9°
Sets 01:41:27 0° 84° (E) 5,961 9.6 -20.2°
